User: anonymous   Login
Location: Newark
(54.8972°N, 99.8189°W)
Time: 02:15:59
(UTC+00:00)
Language:

S-56A Canister/Altair - Orbit

View from above orbital plane
View from above orbital plane
View from above satellite
View from above satellite

Ground track
Ground track

The orbit data is extracted from the following two-line orbital elements,

1    82U 61004B   19317.93248062 -.00000008 +00000-0 +39686-4 0  9991
2    82 038.8555 280.1081 1173611 118.5800 253.7993 12.26055651781231
Epoch (UTC): 13 November 2019 22:22:46
Eccentricity: 0.1173611
inclination: 38.8555°
perigee height: 634 km
apogee height: 2498 km
right ascension of ascending node: 280.1081°
argument of perigee: 118.5800°
revolutions per day: 12.26055651
mean anomaly at epoch: 253.7993°
orbit number at epoch: 78123

The dashed part of the orbit path shows where the satellite is in the earth's shadow,  

DLR